Regional Weather Roundup
Issued by NWS

Home | Current Version | Previous Version | Graphics & Text | Print | Product List | Glossary On
Versions: 1 2 3 4 5 6 7 8 9 10 11 12 13 14 15 16 17 18 19 20 21 22 23 24 25 26 27 28 29 30 31 32 33 34 35 36 37 38 39 40 41 42 43 44 45 46 47 48 49 50
000
ASUS43 KMPX 290510
RWRMN
WEATHER ROUNDUP FOR MINNESOTA
NATIONAL WEATHER SERVICE TWIN CITIES/CHANHASSEN MN
1200 AM CDT TUE JUL 29 2014


NOTE: "FAIR" INDICATES FEW OR NO CLOUDS BELOW 12,000 FEET WITH NO
SIGNIFICANT WEATHER AND/OR OBSTRUCTIONS TO VISIBILITY. N/A MEANS
CURRENT SKY AND/OR WEATHER CONDITIONS ARE NOT AVAILABLE.

MNZ060>063-068>070-290600-
   Twin Cities Metro

CITY           SKY/WX    TMP DP  RH WIND       PRES   REMARKS
TWIN CITIES    CLEAR     66  56  70 NW6       30.13S
ST PAUL        CLEAR     64  55  72 N7        30.13S
CRYSTAL        CLEAR     65  54  67 NW6       30.13S
BLAINE         CLEAR     63  55  77 W5        30.14S
LAKEVILLE      CLEAR     59  55  88 W6        30.14S
EDEN PRAIRIE   CLEAR     64  56  75 NW7       30.13S
SOUTH ST PAUL  CLEAR     66  54  64 CALM      30.13S
LAKE ELMO      FAIR      57  55  94 CALM      30.14S
$$
MNZ001>005-007-008-013>017-022>024-027-028-290600-
   Northwest Minnesota

CITY           SKY/WX    TMP DP  RH WIND       PRES   REMARKS
BEMIDJI        CLEAR     56  52  86 W6        30.17S
HALLOCK        CLEAR     63  55  77 CALM      30.17F
ROSEAU         CLEAR     63  55  77 W5        30.16F
WARROAD        CLEAR     63  55  77 W7        30.16S
THIEF RVR FALL CLEAR     59  55  88 W3        30.18F
CROOKSTON      CLEAR     59  55  88 CALM      30.19S
FOSSTON        CLEAR     52  46  82 CALM      30.19F
DETROIT LAKES  CLEAR     59  55  88 CALM      30.20F
MOORHEAD       CLEAR     61  59  94 CALM      30.19F
PARK RAPIDS    CLEAR     53  52  96 NW6       30.18F
$$
MNZ006-009>011-018-025>026-290600-
   North Central Minnesota

CITY           SKY/WX    TMP DP  RH WIND       PRES   REMARKS
BAUDETTE       CLEAR     63  56  78 W6        30.15S
FLAG ISLAND    CLEAR     68  57  68 W6        30.12F
INTL FALLS     PTCLDY    56  55  97 CALM      30.11F
WASKISH        CLEAR     66  57  72 W10       30.14F
BIG FORK       CLEAR     55  54  94 W1        30.14F
LONGVILLE      CLEAR     61  55  82 NW6       30.16S
GRAND RAPIDS   CLEAR     63  54  72 NW8       30.14F
CRANE LAKE     PTCLDY    54  54 100 CALM      30.13F
ORR            PTCLDY    54  52  94 CALM      30.11F
COOK           PTCLDY    57  54  88 CALM      30.13F
$$
MNZ012-019>021-037-290600-
   Northeast Minnesota

CITY           SKY/WX    TMP DP  RH WIND       PRES   REMARKS
DULUTH         PTCLDY    62  54  74 NW8       30.10F
ELY            CLOUDY    57  54  88 CALM      30.11F
HIBBING        PTCLDY    62  54  74 N9        30.13S
EVELETH        PTCLDY    63  52  67 N7        30.13S
DULUTH HARBOR  MOCLDY    68  59  73 NW9       30.09S
TWO HARBORS    CLEAR     63  52  67 N7        30.08F
SILVER BAY     PTCLDY    57  55  94 NW3       30.07F
GRAND MARAIS     N/A     64  53  67 N10G20    30.02F
G MARAIS ARPRT MOCLDY    55  48  76 NW7       30.07F
$$
MNZ029>031-032-039>041-046>048-054>057-064-290600-
   West Central Minnesota

CITY           SKY/WX    TMP DP  RH WIND       PRES   REMARKS
FERGUS FALLS   CLEAR     57  52  82 CALM      30.20S
WHEATON        CLEAR     57  54  88 W3        30.22S
MORRIS         CLEAR     55  54  94 NW3       30.19S
ALEXANDRIA     CLEAR     60  54  80 W5        30.21S
ELBOW LAKE     FAIR      57  54  89 CALM      30.19S
WADENA         CLEAR     55  52  88 CALM      30.18F
GLENWOOD       CLEAR     57  54  88 NW6       30.20S
APPLETON       CLEAR     55  54  94 NW3       30.19S
BENSON         CLEAR     55  54  94 N3        30.19F
ORTONVILLE     CLEAR     61  54  77 W3        30.20S
MADISON        CLEAR     57  54  88 W6        30.21R
WILLMAR        FAIR      61  54  77 NW6       30.20S
$$
MNZ033>034-036-042>043-049>051-058-059-290600-
   Central Minnesota

CITY           SKY/WX    TMP DP  RH WIND       PRES   REMARKS
ST CLOUD       CLEAR     62  55  77 NW5       30.15S
SAUK CENTRE    FAIR      56  53  89 W3        30.19S
PAYNESVILLE    CLEAR     54  53  97 SW6       30.19S FOG
AITKIN         CLEAR     57  52  82 CALM      30.14S
PINE RIVER     CLEAR     57  54  88 CALM      30.20S
BRAINERD       CLEAR     62  54  74 NW3       30.17S
STAPLES        CLEAR     55  54  94 W3        30.18S
LONG PRAIRIE   FAIR      59  52  77 NW3       30.19S
LITTLE FALLS   CLEAR     59  52  77 CALM      30.17S
LITCHFIELD     CLEAR     64  55  72 W3        30.18S
BUFFALO        CLEAR     65  55  69 NW5       30.16S
MAPLE LAKE     CLEAR     64  57  79 NW5       30.17S
$$
MNZ037-044-045-052-053-290600-
   East Central Minnesota

CITY           SKY/WX    TMP DP  RH WIND       PRES   REMARKS
PRINCETON      CLEAR     61  55  82 W5        30.15S
MORA           CLEAR     55  54  94 CALM      30.15S
CAMBRIDGE      CLEAR     63  52  67 CALM      30.12S
RUSH CITY      PTCLDY    59  55  86 CALM      30.13S
MOOSE LAKE     CLEAR     61  54  77 NW6       30.11S
HINCKLEY       FAIR      63  55  77 NW3       30.13R
CLOQUET        CLEAR     61  52  72 NW7       30.12S
MCGREGOR       CLEAR     61  54  77 NW3       30.14S
$$
MNZ071>073-080-081-089-090-097-098-290600-
   Southwest Minnesota

CITY           SKY/WX    TMP DP  RH WIND       PRES   REMARKS
MONTEVIDEO     CLEAR     59  54  82 NW5       30.20S
GRANITE FALLS  CLEAR     55  53  92 W6        30.21S
CANBY          CLEAR     56  51  84 W5        30.22S
MARSHALL       CLEAR     55  48  76 W9        30.20S
REDWOOD FALLS  CLEAR     59  54  83 W8        30.18S
OLIVIA         CLEAR     57  52  82 NW3       30.18S
PIPESTONE      CLEAR     61  54  77 CALM      30.23S
WINDOM         CLEAR     55  54  94 W6        30.21S
WORTHINGTON    CLEAR     55  52  88 NW6       30.22F
JACKSON        CLEAR     55  52  88 W5        30.21S
TRACY          CLEAR     60  53  76 W6        30.22R
SLAYTON        CLEAR     55  52  92 CALM      30.23S
$$
MNZ065>067-074>077-082>085-091>093-290600-
   South Central Minnesota

CITY           SKY/WX    TMP DP  RH WIND       PRES   REMARKS
MANKATO        CLEAR     63  52  67 NW7       30.16S
NEW ULM        CLEAR     61  55  82 NW7       30.17S
ST JAMES       CLEAR     57  54  88 W3        30.19S
FAIRMONT       CLEAR     59  50  72 NW6       30.18S
GLENCOE        CLEAR     63  56  78 W7        30.16S
FARIBAULT      CLEAR     63  54  72 W5        30.15S
OWATONNA       CLEAR     57  54  88 W3        30.15F
WASECA         CLEAR     55  52  88 NW5       30.17S
ALBERT LEA     CLEAR     61  54  77 W3        30.16S
$$
MNZ078>079-086>088-094>096-290600-
   Southeast Minnesota

CITY           SKY/WX    TMP DP  RH WIND       PRES   REMARKS
ROCHESTER      CLEAR     58  53  84 W8        30.15S
RED WING       CLEAR     57  55  94 N3        30.11F
STANTON        CLEAR     59  55  85 CALM      30.13S
DODGE CENTER   PTCLDY    61  55  82 W6        30.15S
WINONA         CLEAR     59  55  88 N3        30.12S
AUSTIN         CLEAR     63  54  72 W5        30.15S
PRESTON        CLEAR     58  56  94 W7        30.14F
$$
ABBREVIATIONS USED IN REMARKS
   TC - TEMPERATURES IN CELSIUS
  WCI - WIND CHILL INDEX
   HX - HEAT INDEX
  VSB - VISIBILITY
$$


USA.gov is the U.S. government's official web portal to all federal, state and local government web resources and services.